Location: Bothwell
(42.3833°S, 147.0000°E)
Time: 11:13:37
(UTC+11:00)

Tiangong - Visible Passes

Search period start: 05 October 2023 00:00
Search period end: 15 October 2023 00:00
Orbit: 370 x 384 km, 41.5° (Epoch: 04 October)

Date Brightness Start Highest point End Pass type
(mag) Time Alt. Az. Time Alt. Az. Time Alt. Az.
05 Oct 0.7 04:48:25 10° NNE 04:48:33 10° NE 04:49:02 10° NE visible
06 Oct -0.5 05:21:16 19° NNW 05:22:38 26° NNE 05:25:19 10° E visible
07 Oct 0.7 04:21:55 13° ENE 04:21:55 13° ENE 04:22:35 10° ENE visible
07 Oct -1.7 05:53:58 12° WNW 05:56:48 52° NNE 05:59:54 10° E visible
08 Oct -1.2 04:54:28 36° NNE 04:54:32 36° NNE 04:57:28 10° E visible
09 Oct -2.1 05:26:52 24° WNW 05:28:33 65° N 05:31:42 10° E visible
10 Oct -0.6 04:27:07 32° ENE 04:27:07 32° ENE 04:29:05 10° E visible
10 Oct -2.1 05:59:26 10° W 06:02:34 77° N 06:05:44 10° E visible
11 Oct -2.2 04:59:18 53° WNW 04:59:54 74° N 05:03:03 10° E visible
12 Oct 0.6 03:59:23 17° E 03:59:23 17° E 04:00:16 10° E visible
12 Oct -2.2 05:31:23 17° W 05:33:43 71° N 05:36:51 10° ENE visible
13 Oct -1.6 04:31:25 54° ENE 04:31:25 54° ENE 04:33:59 10° E visible
14 Oct -2.1 05:03:25 37° WNW 05:04:24 60° N 05:07:30 10° ENE visible
